• en Suisse
  • Liste des pays
  • À 7 jours
  • Température de l'eau
  • Carte satellitaire
  • Carte météo
  • Widgets météo
  • user-avatar
    Se connecter

    Météo par heure à Wellington

    Ce jour, 24 Novembre, Vendredi

    Heure Température Précipitation Vent Pression Humidité
    00:00 +15°C° 0 mm 1 m/s 761 mmHg 89%
    01:00 +15°C° 0 mm 1 m/s 761 mmHg 89%
    02:00 +15°C° 0 mm 2 m/s 761 mmHg 89%
    03:00 +15°C° 0 mm 2 m/s 761 mmHg 89%
    04:00 +15°C° 0 mm 2 m/s 761 mmHg 87%
    05:00 +14°C° 0 mm 3 m/s 761 mmHg 86%
    06:00 +15°C° 0 mm 4 m/s 761 mmHg 83%
    07:00 +18°C° 0 mm 4 m/s 761 mmHg 75%
    08:00 +19°C° 0 mm 4 m/s 761 mmHg 68%
    09:00 +21°C° 0 mm 5 m/s 761 mmHg 60%
    10:00 +22°C° 0 mm 5 m/s 760 mmHg 57%
    11:00 +23°C° 0 mm 5 m/s 760 mmHg 54%
    12:00 +23°C° 0 mm 7 m/s 760 mmHg 56%
    13:00 +23°C° 0 mm 7 m/s 760 mmHg 56%
    14:00 +23°C° 0 mm 7 m/s 760 mmHg 56%
    15:00 +23°C° 0 mm 7 m/s 759 mmHg 56%
    16:00 +21°C° 0 mm 6 m/s 759 mmHg 61%
    17:00 +20°C° 0 mm 6 m/s 759 mmHg 66%
    18:00 +19°C° 0 mm 6 m/s 758 mmHg 72%
    19:00 +17°C° 0 mm 6 m/s 759 mmHg 76%
    20:00 +16°C° 0 mm 5 m/s 759 mmHg 80%
    21:00 +15°C° 0 mm 5 m/s 759 mmHg 84%
    22:00 +15°C° 0 mm 4 m/s 760 mmHg 85%
    23:00 +14°C° 0 mm 4 m/s 760 mmHg 87%

    Demain, 25 Novembre, Samedi

    Heure Température Précipitation Vent Pression Humidité
    00:00 +14°C° 0 mm 3 m/s 760 mmHg 89%
    01:00 +14°C° 0 mm 3 m/s 760 mmHg 91%
    02:00 +13°C° 0 mm 3 m/s 760 mmHg 93%
    03:00 +13°C° 0 mm 3 m/s 760 mmHg 95%
    04:00 +14°C° 0 mm 2 m/s 760 mmHg 93%
    05:00 +15°C° 0 mm 2 m/s 760 mmHg 92%
    06:00 +15°C° 0 mm 2 m/s 760 mmHg 90%
    07:00 +17°C° 0 mm 2 m/s 761 mmHg 84%
    08:00 +18°C° 0 mm 3 m/s 761 mmHg 78%
    09:00 +19°C° 0 mm 3 m/s 761 mmHg 71%
    10:00 +20°C° 0 mm 4 m/s 761 mmHg 70%
    11:00 +20°C° 0 mm 4 m/s 761 mmHg 69%
    12:00 +20°C° 0 mm 5 m/s 761 mmHg 68%
    13:00 +21°C° 0 mm 5 m/s 761 mmHg 66%
    14:00 +21°C° 0 mm 6 m/s 760 mmHg 64%
    15:00 +21°C° 0 mm 6 m/s 760 mmHg 63%
    16:00 +21°C° 0 mm 6 m/s 760 mmHg 67%
    17:00 +20°C° 0 mm 6 m/s 760 mmHg 71%
    18:00 +19°C° 0 mm 6 m/s 760 mmHg 76%
    19:00 +17°C° 0 mm 6 m/s 760 mmHg 81%
    20:00 +15°C° 0 mm 5 m/s 761 mmHg 87%
    21:00 +14°C° 0 mm 5 m/s 761 mmHg 93%
    22:00 +14°C° 0 mm 5 m/s 761 mmHg 93%
    23:00 +14°C° 0 mm 5 m/s 761 mmHg 94%

    Après-demain, 26 Novembre, Dimanche

    Heure Température Précipitation Vent Pression Humidité
    00:00 +13°C° 0 mm 5 m/s 761 mmHg 95%
    01:00 +13°C° 0 mm 5 m/s 761 mmHg 94%
    02:00 +13°C° 0 mm 5 m/s 761 mmHg 94%
    03:00 +13°C° 0 mm 5 m/s 760 mmHg 93%
    04:00 +14°C° 0 mm 5 m/s 761 mmHg 92%
    05:00 +14°C° 0 mm 5 m/s 761 mmHg 91%
    06:00 +14°C° 0 mm 5 m/s 761 mmHg 89%
    07:00 +16°C° 0 mm 5 m/s 761 mmHg 83%
    08:00 +18°C° 0 mm 4 m/s 761 mmHg 77%
    09:00 +19°C° 0 mm 4 m/s 761 mmHg 71%
    10:00 +20°C° 0 mm 4 m/s 761 mmHg 69%
    11:00 +21°C° 0 mm 4 m/s 761 mmHg 66%
    12:00 +21°C° 0 mm 4 m/s 761 mmHg 64%
    13:00 +22°C° 0 mm 4 m/s 760 mmHg 64%
    14:00 +22°C° 0 mm 4 m/s 760 mmHg 64%
    15:00 +22°C° 0 mm 4 m/s 760 mmHg 64%
    16:00 +21°C° 0 mm 4 m/s 760 mmHg 67%
    17:00 +21°C° 0 mm 3 m/s 760 mmHg 71%
    18:00 +20°C° 0 mm 3 m/s 759 mmHg 75%
    19:00 +19°C° 0 mm 2 m/s 760 mmHg 81%
    20:00 +17°C° 0 mm 2 m/s 760 mmHg 87%
    21:00 +16°C° 0 mm 2 m/s 760 mmHg 93%
    22:00 +16°C° 0 mm 1 m/s 760 mmHg 94%
    23:00 +16°C° 0 mm 1 m/s 760 mmHg 94%

    27 Novembre, Lundi

    Heure Température Précipitation Vent Pression Humidité
    00:00 +16°C° 0 mm 1 m/s 760 mmHg 95%
    01:00 +16°C° 0 mm 1 m/s 760 mmHg 95%
    02:00 +16°C° 0 mm 1 m/s 760 mmHg 95%
    03:00 +16°C° 0 mm 1 m/s 760 mmHg 95%
    04:00 +16°C° 0 mm 2 m/s 760 mmHg 94%
    05:00 +16°C° 0 mm 2 m/s 760 mmHg 93%
    06:00 +16°C° 0 mm 2 m/s 760 mmHg 92%
    07:00 +18°C° 0 mm 3 m/s 760 mmHg 85%
    08:00 +19°C° 0 mm 3 m/s 761 mmHg 79%
    09:00 +20°C° 0 mm 3 m/s 761 mmHg 72%
    10:00 +21°C° 0,1 mm 3 m/s 761 mmHg 70%
    11:00 +22°C° 0,1 mm 4 m/s 761 mmHg 68%
    12:00 +22°C° 0,1 mm 4 m/s 761 mmHg 67%
    13:00 +22°C° 0,2 mm 4 m/s 761 mmHg 67%
    14:00 +22°C° 0,2 mm 4 m/s 760 mmHg 68%
    15:00 +22°C° 0,2 mm 4 m/s 760 mmHg 69%
    16:00 +21°C° 0 mm 4 m/s 760 mmHg 72%
    17:00 +21°C° 0 mm 3 m/s 760 mmHg 75%
    18:00 +20°C° 0 mm 3 m/s 760 mmHg 78%
    19:00 +19°C° 0 mm 3 m/s 761 mmHg 83%
    20:00 +18°C° 0 mm 3 m/s 761 mmHg 87%
    21:00 +17°C° 0 mm 3 m/s 762 mmHg 92%
    22:00 +16°C° 0 mm 3 m/s 762 mmHg 92%
    23:00 +16°C° 0 mm 3 m/s 762 mmHg 92%

    28 Novembre, Mardi

    Heure Température Précipitation Vent Pression Humidité
    00:00 +15°C° 0 mm 4 m/s 762 mmHg 92%
    01:00 +15°C° 0 mm 4 m/s 762 mmHg 92%
    02:00 +15°C° 0 mm 4 m/s 762 mmHg 93%
    03:00 +15°C° 0 mm 4 m/s 761 mmHg 93%
    04:00 +15°C° 0 mm 4 m/s 762 mmHg 92%
    05:00 +15°C° 0 mm 4 m/s 762 mmHg 91%
    06:00 +15°C° 0 mm 5 m/s 762 mmHg 90%
    07:00 +17°C° 0 mm 5 m/s 762 mmHg 82%
    08:00 +19°C° 0 mm 5 m/s 762 mmHg 74%
    09:00 +21°C° 0 mm 5 m/s 763 mmHg 66%
    10:00 +22°C° 0 mm 5 m/s 762 mmHg 65%
    11:00 +22°C° 0 mm 5 m/s 762 mmHg 64%
    12:00 +23°C° 0 mm 5 m/s 762 mmHg 63%
    13:00 +23°C° 0,1 mm 5 m/s 762 mmHg 63%
    14:00 +23°C° 0,1 mm 4 m/s 761 mmHg 63%
    15:00 +23°C° 0,1 mm 4 m/s 761 mmHg 63%
    16:00 +22°C° 0,1 mm 4 m/s 761 mmHg 67%
    17:00 +21°C° 0,1 mm 4 m/s 761 mmHg 70%
    18:00 +20°C° 0,1 mm 3 m/s 761 mmHg 73%
    19:00 +19°C° 0 mm 3 m/s 761 mmHg 79%
    20:00 +18°C° 0 mm 3 m/s 762 mmHg 84%
    21:00 +16°C° 0 mm 3 m/s 762 mmHg 89%
    22:00 +16°C° 0 mm 3 m/s 762 mmHg 90%
    23:00 +16°C° 0 mm 3 m/s 762 mmHg 90%

    29 Novembre, Mercredi

    Heure Température Précipitation Vent Pression Humidité
    00:00 +16°C° 0 mm 3 m/s 762 mmHg 90%
    01:00 +14°C° 0 mm 3 m/s 762 mmHg 91%
    02:00 +14°C° 0 mm 3 m/s 762 mmHg 91%
    03:00 +14°C° 0 mm 3 m/s 761 mmHg 92%
    04:00 +15°C° 0 mm 2 m/s 761 mmHg 90%
    05:00 +16°C° 0 mm 2 m/s 762 mmHg 88%
    06:00 +16°C° 0 mm 2 m/s 762 mmHg 87%
    07:00 +18°C° 0 mm 2 m/s 762 mmHg 80%
    08:00 +19°C° 0 mm 3 m/s 762 mmHg 72%
    09:00 +21°C° 0 mm 3 m/s 762 mmHg 65%
    10:00 +21°C° 0 mm 4 m/s 762 mmHg 66%
    11:00 +21°C° 0 mm 5 m/s 762 mmHg 68%
    12:00 +22°C° 0 mm 6 m/s 762 mmHg 69%
    13:00 +22°C° 0,1 mm 6 m/s 762 mmHg 70%
    14:00 +22°C° 0,1 mm 7 m/s 762 mmHg 71%
    15:00 +22°C° 0,1 mm 7 m/s 762 mmHg 73%
    16:00 +21°C° 0 mm 7 m/s 762 mmHg 75%
    17:00 +20°C° 0 mm 7 m/s 762 mmHg 76%
    18:00 +19°C° 0 mm 6 m/s 762 mmHg 78%
    19:00 +17°C° 0 mm 6 m/s 762 mmHg 83%
    20:00 +16°C° 0 mm 6 m/s 763 mmHg 87%
    21:00 +15°C° 0 mm 5 m/s 763 mmHg 92%
    22:00 +15°C° 0 mm 5 m/s 763 mmHg 92%
    23:00 +14°C° 0 mm 5 m/s 763 mmHg 93%
    Voir plus